contact:dominique.lefevre@mio.osupytheas.fr, maurice.libes@osupytheas.fr, didier.mallarino@osupytheas.fr
Project:EMSO http://www.emso-fr.org/EMSO-France
Depth: 2436.0 m
Title:EMSO Ligure Ouest : Data MII capteur AQUADOPP
Date,Latitude,Longitude,X_East,Y_North,Z_Up,Amplitude_X,Amplitude_Y,Amplitude_Z,Batterie,SoundSpeed,Heading,Pitch,Roll,Pressure,TIS,Speed,Direction
, degrees North, degrees East, m.s-1, m.s-1,m.s-1, 1, 1, 1, Volt, m.s-1, degree, degree, degree, dbar, degree_C, m.s-1, degree
2021-09-22T00:04:03,42.805,6.029,-0.021,0.011,-0.011,101.0,101.0,101.0,13.4,1505.2,327.1,-0.8,1.8,2470.688,13.28,0.023,297.6
2021-09-22T00:07:03,42.805,6.029,-0.028,-0.016,-0.04,102.0,102.0,102.0,13.3,1505.2,331.4,-0.8,1.8,2470.668,13.28,0.032,240.3
2021-09-22T00:10:03,42.805,6.029,0.003,-0.01,-0.006,102.0,102.0,103.0,13.3,1505.2,329.2,-0.8,1.9,2470.647,13.28,0.01,163.3
2021-09-22T00:13:03,42.805,6.029,-0.032,-0.02,-0.048,102.0,101.0,101.0,13.4,1505.2,325.5,-0.8,1.8,2470.655,13.28,0.037,238.0
2021-09-22T00:16:03,42.805,6.029,-0.016,0.001,-0.016,102.0,103.0,102.0,13.4,1505.2,329.9,-0.7,1.8,2470.63,13.29,0.016,273.6
2021-09-22T00:19:03,42.805,6.029,-0.022,0.008,-0.032,102.0,103.0,102.0,13.4,1505.2,329.6,-0.7,1.8,2470.603,13.29,0.023,290.0
2021-09-22T00:22:03,42.805,6.029,0.0,-0.012,-0.018,104.0,100.0,101.0,13.4,1505.2,327.9,-0.7,1.8,2470.611,13.29,0.012,180.0
2021-09-22T00:25:03,42.805,6.029,-0.006,0.004,-0.014,105.0,103.0,103.0,13.4,1505.2,327.2,-0.7,1.9,2470.658,13.29,0.007,303.7
2021-09-22T00:28:03,42.805,6.029,-0.02,0.002,-0.004,103.0,104.0,101.0,13.4,1505.2,329.8,-0.7,1.8,2470.608,13.29,0.02,275.7
2021-09-22T00:31:03,42.805,6.029,-0.045,0.013,-0.036,105.0,103.0,101.0,13.4,1505.2,327.6,-0.7,1.8,2470.582,13.29,0.046,286.1
2021-09-22T00:34:03,42.805,6.029,-0.022,0.005,-0.018,103.0,101.0,100.0,13.4,1505.2,325.3,-0.8,1.8,2470.629,13.29,0.022,282.8
2021-09-22T00:37:03,42.805,6.029,-0.023,0.0,-0.004,103.0,102.0,102.0,13.3,1505.2,330.5,-0.8,1.8,2470.61,13.29,0.023,270.0
2021-09-22T00:40:03,42.805,6.029,0.0,0.013,0.006,102.0,101.0,101.0,13.3,1505.2,329.3,-0.8,1.8,2470.6,13.29,0.013,0.0
2021-09-22T00:43:03,42.805,6.029,0.001,-0.02,-0.043,103.0,103.0,102.0,13.4,1505.2,331.5,-0.7,1.8,2470.627,13.29,0.02,177.1
2021-09-22T00:46:03,42.805,6.029,-0.017,0.0,-0.015,103.0,102.0,101.0,13.4,1505.2,328.8,-0.7,1.8,2470.605,13.29,0.017,270.0
2021-09-22T00:49:03,42.805,6.029,-0.012,0.008,0.013,103.0,102.0,101.0,13.4,1505.2,329.1,-0.8,1.8,2470.629,13.29,0.014,303.7
2021-09-22T00:52:03,42.805,6.029,-0.01,0.002,0.0,103.0,101.0,102.0,13.4,1505.2,329.3,-0.8,1.8,2470.541,13.29,0.01,281.3
2021-09-22T00:55:03,42.805,6.029,-0.021,0.0,-0.013,102.0,103.0,101.0,13.4,1505.2,326.2,-0.7,1.8,2470.604,13.29,0.021,270.0
2021-09-22T00:58:03,42.805,6.029,-0.017,-0.01,-0.012,103.0,102.0,102.0,13.4,1505.2,326.7,-0.8,1.8,2470.614,13.29,0.019,239.5
2021-09-22T01:04:03,42.805,6.029,0.034,-0.015,0.026,104.0,105.0,103.0,13.4,1505.2,327.4,-0.7,1.8,2470.612,13.28,0.037,113.8
2021-09-22T01:07:03,42.805,6.029,-0.026,-0.002,-0.041,104.0,102.0,101.0,13.4,1505.2,329.9,-0.7,1.8,2470.625,13.28,0.026,265.6
2021-09-22T01:10:03,42.805,6.029,-0.019,0.004,-0.022,103.0,102.0,101.0,13.4,1505.2,327.7,-0.7,1.8,2470.624,13.28,0.019,281.9
2021-09-22T01:13:03,42.805,6.029,-0.01,0.006,-0.024,102.0,101.0,101.0,13.4,1505.2,328.8,-0.8,1.8,2470.589,13.29,0.011,301.0
2021-09-22T01:16:03,42.805,6.029,-0.022,0.005,-0.033,102.0,103.0,103.0,13.4,1505.2,328.3,-0.7,1.9,2470.614,13.29,0.022,282.8
2021-09-22T01:19:03,42.805,6.029,-0.027,0.006,-0.008,102.0,102.0,102.0,13.4,1505.2,330.9,-0.8,1.8,2470.603,13.29,0.027,282.5
2021-09-22T01:22:03,42.805,6.029,-0.025,-0.002,-0.01,102.0,103.0,101.0,13.3,1505.2,327.9,-0.8,1.8,2470.622,13.29,0.025,265.4
2021-09-22T01:25:03,42.805,6.029,-0.017,0.002,-0.034,102.0,101.0,102.0,13.4,1505.2,327.0,-0.8,1.8,2470.559,13.29,0.017,276.7
2021-09-22T01:28:03,42.805,6.029,-0.015,-0.007,-0.039,103.0,102.0,101.0,13.4,1505.2,328.4,-0.8,1.8,2470.586,13.29,0.016,245.0
2021-09-22T01:31:03,42.805,6.029,-0.022,0.003,-0.031,103.0,100.0,100.0,13.4,1505.2,327.6,-0.8,1.8,2470.597,13.29,0.022,277.8
2021-09-22T01:34:03,42.805,6.029,-0.016,0.026,0.012,104.0,101.0,100.0,13.3,1505.2,327.4,-0.8,1.8,2470.6,13.29,0.03,328.4
2021-09-22T01:37:03,42.805,6.029,-0.019,0.012,-0.009,102.0,102.0,101.0,13.4,1505.2,329.7,-0.7,1.8,2470.569,13.29,0.022,302.3
2021-09-22T01:40:03,42.805,6.029,-0.014,-0.006,-0.024,102.0,101.0,101.0,13.3,1505.2,331.5,-0.8,1.8,2470.593,13.29,0.015,246.8
2021-09-22T01:43:03,42.805,6.029,-0.024,0.008,-0.02,105.0,105.0,100.0,13.4,1505.2,326.5,-0.8,1.8,2470.595,13.29,0.025,288.4
2021-09-22T01:46:03,42.805,6.029,-0.014,0.025,-0.001,102.0,101.0,102.0,13.4,1505.2,326.4,-0.7,1.8,2470.569,13.29,0.028,330.7
2021-09-22T01:49:03,42.805,6.029,-0.025,0.013,-0.005,101.0,103.0,102.0,13.4,1505.2,328.7,-0.8,1.8,2470.569,13.29,0.028,297.5
2021-09-22T01:52:03,42.805,6.029,-0.014,-0.001,-0.026,103.0,101.0,101.0,13.4,1505.2,327.6,-0.8,1.8,2470.593,13.29,0.014,265.9
2021-09-22T01:55:03,42.805,6.029,0.0,0.003,0.005,104.0,101.0,100.0,13.4,1505.2,329.2,-0.7,1.8,2470.557,13.29,0.003,0.0
2021-09-22T01:58:03,42.805,6.029,-0.018,0.002,-0.006,102.0,102.0,100.0,13.4,1505.2,329.8,-0.8,1.8,2470.56,13.29,0.018,276.3
2021-09-22T02:04:03,42.805,6.029,-0.03,0.0,-0.05,102.0,102.0,102.0,13.4,1505.2,327.8,-0.7,1.8,2470.631,13.28,0.03,270.0
2021-09-22T02:07:03,42.805,6.029,-0.014,0.005,-0.029,102.0,102.0,100.0,13.4,1505.2,331.3,-0.8,1.8,2470.61,13.28,0.014,289.6
2021-09-22T02:10:03,42.805,6.029,-0.007,0.008,-0.013,101.0,103.0,101.0,13.4,1505.2,325.1,-0.8,1.9,2470.583,13.28,0.01,318.8
2021-09-22T02:13:03,42.805,6.029,-0.031,0.008,0.003,104.0,100.0,101.0,13.4,1505.2,327.6,-0.7,1.8,2470.598,13.29,0.032,284.5
2021-09-22T02:16:03,42.805,6.029,-0.005,0.005,-0.026,101.0,101.0,101.0,13.4,1505.2,328.7,-0.8,1.8,2470.555,13.29,0.007,315.0
2021-09-22T02:19:03,42.805,6.029,-0.009,-0.009,-0.006,102.0,101.0,101.0,13.4,1505.2,330.7,-0.8,1.8,2470.572,13.29,0.012,225.0
2021-09-22T02:22:03,42.805,6.029,-0.032,0.003,-0.007,102.0,100.0,103.0,13.4,1505.2,327.1,-0.7,1.8,2470.572,13.29,0.032,275.4
2021-09-22T02:25:03,42.805,6.029,-0.014,-0.001,-0.014,103.0,102.0,100.0,13.3,1505.2,327.0,-0.8,1.8,2470.53,13.29,0.014,265.9
2021-09-22T02:28:03,42.805,6.029,-0.012,-0.016,-0.012,103.0,99.0,100.0,13.4,1505.2,327.4,-0.7,1.8,2470.582,13.29,0.02,216.9
2021-09-22T02:31:03,42.805,6.029,-0.015,0.009,-0.039,102.0,100.0,102.0,13.4,1505.2,329.2,-0.8,1.8,2470.551,13.29,0.017,301.0
2021-09-22T02:34:03,42.805,6.029,-0.022,-0.011,-0.033,102.0,102.0,100.0,13.4,1505.2,325.4,-0.8,1.8,2470.528,13.29,0.024,243.4
2021-09-22T02:37:03,42.805,6.029,-0.031,-0.013,-0.045,101.0,103.0,102.0,13.4,1505.2,325.8,-0.8,1.8,2470.521,13.29,0.033,247.3
2021-09-22T02:40:03,42.805,6.029,-0.039,-0.001,-0.037,102.0,102.0,102.0,13.4,1505.2,327.9,-0.8,1.8,2470.564,13.29,0.039,268.5
2021-09-22T02:43:03,42.805,6.029,-0.021,-0.015,-0.007,105.0,102.0,101.0,13.4,1505.2,327.7,-0.7,1.8,2470.566,13.29,0.025,234.5
2021-09-22T02:46:03,42.805,6.029,-0.026,-0.009,-0.048,102.0,101.0,101.0,13.4,1505.2,327.3,-0.7,1.8,2470.558,13.29,0.027,250.9
2021-09-22T02:49:03,42.805,6.029,-0.015,-0.001,-0.011,104.0,101.0,101.0,13.4,1505.2,329.3,-0.7,1.8,2470.547,13.29,0.015,266.2
2021-09-22T02:52:03,42.805,6.029,-0.021,-0.004,-0.015,103.0,102.0,101.0,13.3,1505.2,329.9,-0.7,1.8,2470.554,13.29,0.021,259.2
2021-09-22T02:55:03,42.805,6.029,-0.045,-0.005,-0.055,103.0,103.0,100.0,13.4,1505.2,329.9,-0.7,1.8,2470.561,13.29,0.045,263.7
2021-09-22T02:58:03,42.805,6.029,-0.028,-0.001,-0.029,103.0,102.0,101.0,13.4,1505.2,328.9,-0.7,1.8,2470.555,13.29,0.028,268.0
2021-09-22T03:04:03,42.805,6.029,-0.013,0.0,-0.021,102.0,102.0,101.0,13.4,1505.2,329.4,-0.7,1.8,2470.641,13.28,0.013,270.0
2021-09-22T03:07:03,42.805,6.029,-0.024,-0.003,0.0,100.0,101.0,102.0,13.4,1505.2,327.0,-0.7,1.8,2470.6,13.28,0.024,262.9
2021-09-22T03:10:03,42.805,6.029,-0.024,0.0,-0.017,101.0,104.0,101.0,13.3,1505.2,328.0,-0.7,1.8,2470.588,13.28,0.024,270.0
2021-09-22T03:13:03,42.805,6.029,-0.019,-0.001,-0.038,102.0,106.0,100.0,13.3,1505.2,327.0,-0.8,1.8,2470.598,13.28,0.019,267.0
2021-09-22T03:16:03,42.805,6.029,-0.021,0.009,0.019,102.0,101.0,101.0,13.4,1505.2,328.3,-0.8,1.8,2470.579,13.29,0.022,293.2
2021-09-22T03:19:03,42.805,6.029,-0.026,-0.002,-0.022,101.0,103.0,100.0,13.4,1505.2,325.8,-0.7,1.9,2470.603,13.29,0.026,265.6
2021-09-22T03:22:03,42.805,6.029,-0.002,0.011,0.011,100.0,102.0,101.0,13.4,1505.2,330.2,-0.8,1.8,2470.603,13.29,0.011,349.7
2021-09-22T03:25:03,42.805,6.029,0.0,0.0,0.003,103.0,103.0,100.0,13.3,1505.2,327.9,-0.8,1.8,2470.543,13.29,0.0,0.0
2021-09-22T03:28:03,42.805,6.029,-0.008,0.002,-0.022,103.0,103.0,101.0,13.4,1505.2,327.9,-0.7,1.8,2470.59,13.29,0.008,284.0
2021-09-22T03:31:03,42.805,6.029,-0.045,0.003,-0.041,102.0,100.0,101.0,13.3,1505.2,329.2,-0.7,1.8,2470.571,13.29,0.045,273.8
2021-09-22T03:34:03,42.805,6.029,-0.018,0.0,-0.006,101.0,103.0,101.0,13.4,1505.2,329.2,-0.8,1.8,2470.558,13.29,0.018,270.0
2021-09-22T03:37:03,42.805,6.029,-0.017,0.016,0.023,100.0,102.0,100.0,13.4,1505.2,328.7,-0.7,1.8,2470.585,13.29,0.023,313.3
2021-09-22T03:40:03,42.805,6.029,0.001,-0.009,-0.005,102.0,100.0,101.0,13.4,1505.2,329.0,-0.7,1.8,2470.574,13.29,0.009,173.7
2021-09-22T03:43:03,42.805,6.029,-0.011,-0.006,-0.001,101.0,101.0,102.0,13.4,1505.2,329.2,-0.8,1.8,2470.54,13.29,0.012,241.4
2021-09-22T03:46:03,42.805,6.029,-0.04,0.0,-0.017,101.0,101.0,101.0,13.3,1505.2,327.1,-0.8,1.8,2470.567,13.29,0.04,270.0
2021-09-22T03:49:03,42.805,6.029,-0.023,0.032,-0.003,100.0,100.0,102.0,13.3,1505.2,329.3,-0.8,1.8,2470.556,13.29,0.039,324.3
2021-09-22T03:52:03,42.805,6.029,-0.026,-0.005,-0.025,102.0,102.0,101.0,13.4,1505.2,331.6,-0.7,1.8,2470.574,13.29,0.026,259.1
2021-09-22T03:55:03,42.805,6.029,-0.021,0.004,-0.024,102.0,101.0,100.0,13.4,1505.2,330.3,-0.7,1.8,2470.573,13.29,0.021,280.8
2021-09-22T03:58:03,42.805,6.029,-0.023,-0.012,-0.041,101.0,100.0,100.0,13.4,1505.2,327.6,-0.7,1.8,2470.583,13.29,0.025,242.4
2021-09-22T04:04:03,42.805,6.029,0.014,0.009,0.009,100.0,100.0,102.0,13.4,1505.2,325.9,-0.8,1.8,2470.608,13.28,0.016,57.3
2021-09-22T04:07:03,42.805,6.029,-0.006,0.016,-0.014,102.0,101.0,100.0,13.4,1505.2,327.8,-0.7,1.8,2470.595,13.28,0.017,339.4
2021-09-22T04:10:03,42.805,6.029,-0.033,0.016,0.011,101.0,100.0,101.0,13.4,1505.2,328.7,-0.8,1.8,2470.591,13.28,0.036,295.9
2021-09-22T04:13:03,42.805,6.029,-0.009,-0.001,0.003,102.0,101.0,100.0,13.4,1505.2,328.7,-0.8,1.8,2470.634,13.28,0.009,263.7
2021-09-22T04:16:03,42.805,6.029,-0.012,0.003,0.009,101.0,101.0,100.0,13.3,1505.2,328.3,-0.7,1.8,2470.555,13.28,0.012,284.0
2021-09-22T04:19:03,42.805,6.029,-0.005,0.021,-0.01,100.0,100.0,101.0,13.4,1505.2,331.6,-0.8,1.8,2470.566,13.28,0.021,346.6
2021-09-22T04:22:03,42.805,6.029,-0.029,-0.009,-0.022,101.0,100.0,100.0,13.4,1505.2,328.3,-0.8,1.8,2470.569,13.28,0.03,252.8
2021-09-22T04:25:03,42.805,6.029,-0.023,-0.003,-0.019,102.0,101.0,100.0,13.4,1505.2,330.8,-0.8,1.8,2470.618,13.28,0.023,262.6
2021-09-22T04:28:03,42.805,6.029,-0.027,0.021,0.018,104.0,104.0,99.0,13.4,1505.2,326.7,-0.7,1.8,2470.576,13.28,0.034,307.9
2021-09-22T04:31:03,42.805,6.029,-0.039,0.008,-0.032,103.0,100.0,100.0,13.4,1505.2,328.7,-0.8,1.8,2470.578,13.29,0.039,281.6
2021-09-22T04:34:03,42.805,6.029,0.0,-0.013,-0.022,102.0,101.0,100.0,13.4,1505.2,326.5,-0.7,1.8,2470.596,13.29,0.013,180.0
2021-09-22T04:37:03,42.805,6.029,-0.014,-0.012,-0.027,102.0,101.0,103.0,13.3,1505.2,329.9,-0.7,1.9,2470.615,13.29,0.018,229.4
2021-09-22T04:40:03,42.805,6.029,0.001,0.018,0.019,101.0,101.0,100.0,13.4,1505.2,327.8,-0.7,1.8,2470.575,13.29,0.018,3.2
2021-09-22T04:43:03,42.805,6.029,-0.021,0.008,-0.013,101.0,100.0,99.0,13.3,1505.2,329.1,-0.7,1.8,2470.626,13.29,0.022,290.9
2021-09-22T04:46:03,42.805,6.029,-0.01,-0.021,-0.01,101.0,102.0,100.0,13.4,1505.2,326.3,-0.8,1.8,2470.615,13.29,0.023,205.5
2021-09-22T04:49:03,42.805,6.029,-0.006,-0.011,-0.038,102.0,102.0,101.0,13.4,1505.2,327.3,-0.7,1.8,2470.603,13.29,0.012,208.6
2021-09-22T04:52:03,42.805,6.029,-0.023,0.0,-0.01,101.0,100.0,100.0,13.4,1505.2,331.3,-0.8,1.9,2470.576,13.29,0.023,270.0
2021-09-22T04:55:03,42.805,6.029,0.004,0.003,-0.02,103.0,102.0,101.0,13.4,1505.2,327.3,-0.8,1.8,2470.586,13.29,0.005,53.1
2021-09-22T04:58:03,42.805,6.029,-0.038,-0.004,-0.021,103.0,100.0,100.0,13.3,1505.2,325.5,-0.7,1.8,2470.589,13.29,0.038,264.0
2021-09-22T05:04:03,42.805,6.029,-0.014,0.005,-0.022,100.0,101.0,100.0,13.4,1505.2,325.6,-0.8,1.8,2470.64,13.28,0.014,289.6
2021-09-22T05:07:03,42.805,6.029,-0.033,0.02,0.023,101.0,102.0,99.0,13.3,1505.2,326.5,-0.8,1.8,2470.598,13.28,0.038,301.2
2021-09-22T05:10:03,42.805,6.029,-0.022,0.019,-0.003,100.0,102.0,100.0,13.4,1505.2,326.4,-0.7,1.8,2470.653,13.28,0.029,310.8
2021-09-22T05:13:03,42.805,6.029,-0.039,-0.007,-0.034,102.0,100.0,101.0,13.3,1505.2,329.0,-0.7,1.8,2470.627,13.29,0.039,259.8
2021-09-22T05:16:03,42.805,6.029,-0.021,0.0,0.0,101.0,101.0,100.0,13.4,1505.2,329.7,-0.7,1.8,2470.663,13.29,0.021,270.0
2021-09-22T05:19:03,42.805,6.029,-0.004,-0.001,0.01,102.0,99.0,100.0,13.4,1505.2,331.5,-0.8,1.8,2470.637,13.29,0.004,256.0
2021-09-22T05:22:03,42.805,6.029,-0.008,-0.015,0.002,101.0,101.0,100.0,13.4,1505.2,328.1,-0.8,1.8,2470.666,13.29,0.017,208.1
2021-09-22T05:25:03,42.805,6.029,-0.007,-0.002,-0.03,104.0,100.0,100.0,13.4,1505.2,329.1,-0.7,1.8,2470.609,13.29,0.007,254.1
2021-09-22T05:28:03,42.805,6.029,-0.028,0.026,0.003,99.0,103.0,100.0,13.3,1505.2,327.5,-0.7,1.8,2470.674,13.29,0.038,312.9
2021-09-22T05:31:03,42.805,6.029,-0.014,-0.01,-0.006,100.0,104.0,99.0,13.3,1505.2,328.8,-0.8,1.9,2470.653,13.29,0.017,234.5
2021-09-22T05:34:03,42.805,6.029,-0.008,-0.011,-0.022,100.0,101.0,100.0,13.4,1505.2,327.4,-0.7,1.8,2470.624,13.29,0.013,216.0
2021-09-22T05:37:03,42.805,6.029,-0.021,0.003,-0.013,101.0,101.0,100.0,13.3,1505.2,329.4,-0.8,1.8,2470.633,13.29,0.021,278.1
2021-09-22T05:40:03,42.805,6.029,-0.037,-0.004,-0.029,101.0,101.0,100.0,13.4,1505.2,328.4,-0.7,1.8,2470.639,13.29,0.037,263.8
2021-09-22T05:43:03,42.805,6.029,0.005,0.005,-0.029,102.0,101.0,99.0,13.4,1505.2,331.3,-0.8,1.8,2470.639,13.29,0.007,45.0
2021-09-22T05:46:03,42.805,6.029,-0.021,0.014,0.001,101.0,101.0,101.0,13.4,1505.2,326.9,-0.8,1.9,2470.663,13.29,0.025,303.7
2021-09-22T05:49:03,42.805,6.029,-0.023,-0.006,-0.009,101.0,100.0,100.0,13.3,1505.2,330.1,-0.7,1.8,2470.67,13.29,0.023,255.4
2021-09-22T05:52:03,42.805,6.029,-0.002,-0.006,-0.005,101.0,100.0,100.0,13.4,1505.2,327.4,-0.7,1.8,2470.663,13.29,0.006,198.4
2021-09-22T05:55:03,42.805,6.029,-0.048,0.015,-0.028,101.0,100.0,100.0,13.4,1505.2,329.0,-0.8,1.8,2470.646,13.29,0.05,287.4
2021-09-22T05:58:03,42.805,6.029,-0.015,-0.017,0.006,101.0,101.0,100.0,13.4,1505.2,329.6,-0.7,1.8,2470.68,13.29,0.022,221.4
2021-09-22T06:04:03,42.805,6.029,-0.032,0.018,0.019,102.0,101.0,100.0,13.4,1505.2,328.5,-0.8,1.8,2470.678,13.28,0.036,299.4
2021-09-22T06:07:03,42.805,6.029,-0.022,-0.02,-0.035,100.0,101.0,101.0,13.4,1505.2,325.9,-0.7,1.8,2470.705,13.28,0.029,227.7
2021-09-22T06:10:03,42.805,6.029,-0.025,0.003,-0.03,101.0,101.0,100.0,13.4,1505.2,327.3,-0.8,1.8,2470.715,13.28,0.025,276.8
2021-09-22T06:13:03,42.805,6.029,-0.006,0.002,-0.013,101.0,101.0,101.0,13.4,1505.2,329.1,-0.7,1.8,2470.694,13.28,0.006,288.4
2021-09-22T06:16:03,42.805,6.029,-0.017,0.006,-0.036,100.0,103.0,99.0,13.3,1505.2,327.8,-0.8,1.8,2470.706,13.29,0.018,289.4
2021-09-22T06:19:03,42.805,6.029,-0.013,0.002,-0.025,101.0,101.0,101.0,13.4,1505.2,329.0,-0.8,1.8,2470.712,13.29,0.013,278.7
2021-09-22T06:22:03,42.805,6.029,-0.024,0.019,-0.018,103.0,100.0,100.0,13.4,1505.2,325.8,-0.8,1.8,2470.696,13.29,0.03,308.4
2021-09-22T06:25:03,42.805,6.029,-0.006,0.033,0.008,102.0,101.0,101.0,13.4,1505.2,328.3,-0.8,1.8,2470.689,13.29,0.033,349.7
2021-09-22T06:28:03,42.805,6.029,-0.008,0.003,-0.012,99.0,102.0,100.0,13.4,1505.2,329.6,-0.8,1.8,2470.702,13.29,0.008,290.6
2021-09-22T06:31:03,42.805,6.029,-0.042,0.0,-0.007,104.0,100.0,100.0,13.3,1505.2,327.2,-0.8,1.8,2470.718,13.29,0.042,270.0
2021-09-22T06:34:03,42.805,6.029,-0.031,0.007,0.015,102.0,101.0,101.0,13.3,1505.2,325.5,-0.8,1.8,2470.7,13.29,0.031,282.7
2021-09-22T06:37:03,42.805,6.029,-0.017,-0.005,0.0,102.0,101.0,100.0,13.4,1505.2,327.4,-0.7,1.8,2470.676,13.29,0.017,253.6
2021-09-22T06:40:03,42.805,6.029,-0.002,-0.013,-0.029,101.0,100.0,101.0,13.4,1505.2,328.3,-0.8,1.8,2470.654,13.29,0.013,188.7
2021-09-22T06:43:03,42.805,6.029,-0.026,0.001,-0.004,105.0,100.0,100.0,13.3,1505.2,329.0,-0.8,1.8,2470.701,13.29,0.026,272.2
2021-09-22T06:46:03,42.805,6.029,-0.023,0.006,-0.02,100.0,101.0,101.0,13.4,1505.2,331.2,-0.8,1.8,2470.671,13.29,0.023,284.6
2021-09-22T06:49:03,42.805,6.029,-0.023,0.027,0.006,101.0,100.0,101.0,13.3,1505.2,330.1,-0.7,1.8,2470.708,13.29,0.035,319.6
2021-09-22T06:52:03,42.805,6.029,-0.009,-0.002,-0.012,102.0,100.0,103.0,13.4,1505.2,327.0,-0.7,1.8,2470.695,13.29,0.009,257.5
2021-09-22T06:55:03,42.805,6.029,-0.015,-0.003,-0.005,101.0,103.0,100.0,13.4,1505.2,329.7,-0.8,1.8,2470.708,13.29,0.015,258.7
2021-09-22T06:58:03,42.805,6.029,-0.002,0.004,0.008,101.0,101.0,100.0,13.3,1505.2,329.6,-0.7,1.8,2470.707,13.29,0.004,333.4
2021-09-22T07:04:03,42.805,6.029,-0.015,-0.006,0.02,101.0,102.0,100.0,13.4,1505.2,326.0,-0.8,1.8,2470.755,13.28,0.016,248.2
2021-09-22T07:07:03,42.805,6.029,-0.015,0.012,0.02,101.0,101.0,100.0,13.4,1505.2,327.1,-0.8,1.8,2470.765,13.28,0.019,308.7
2021-09-22T07:10:03,42.805,6.029,0.007,0.008,0.024,101.0,102.0,100.0,13.4,1505.2,325.9,-0.7,1.8,2470.72,13.28,0.01,41.2
2021-09-22T07:13:03,42.805,6.029,-0.023,-0.005,-0.031,102.0,102.0,101.0,13.4,1505.2,325.3,-0.7,1.8,2470.74,13.28,0.023,257.7
2021-09-22T07:16:03,42.805,6.029,-0.012,0.001,0.018,101.0,101.0,100.0,13.3,1505.2,325.7,-0.8,1.8,2470.781,13.29,0.012,274.8
2021-09-22T07:19:03,42.805,6.029,0.008,0.011,0.019,102.0,103.0,100.0,13.4,1505.2,326.4,-0.8,1.8,2470.754,13.29,0.013,36.0
2021-09-22T07:22:03,42.805,6.029,-0.011,-0.008,0.009,101.0,103.0,100.0,13.4,1505.2,330.1,-0.7,1.8,2470.727,13.29,0.013,234.0
2021-09-22T07:25:03,42.805,6.029,-0.044,-0.007,-0.01,102.0,102.0,100.0,13.4,1505.2,328.3,-0.7,1.8,2470.753,13.29,0.044,261.0
2021-09-22T07:28:03,42.805,6.029,-0.011,-0.014,0.005,100.0,103.0,101.0,13.4,1505.2,325.7,-0.8,1.8,2470.74,13.29,0.017,218.2
2021-09-22T07:31:03,42.805,6.029,-0.021,0.0,-0.014,101.0,104.0,99.0,13.4,1505.2,330.2,-0.7,1.8,2470.738,13.29,0.021,270.0
2021-09-22T07:34:03,42.805,6.029,-0.009,0.0,-0.014,100.0,102.0,101.0,13.3,1505.2,328.0,-0.7,1.8,2470.716,13.29,0.009,270.0
2021-09-22T07:37:03,42.805,6.029,-0.03,-0.009,-0.008,100.0,100.0,101.0,13.4,1505.2,330.8,-0.7,1.9,2470.77,13.29,0.031,253.3
2021-09-22T07:40:03,42.805,6.029,-0.029,-0.002,0.002,103.0,101.0,99.0,13.4,1505.2,328.8,-0.7,1.8,2470.739,13.29,0.029,266.1
2021-09-22T07:43:03,42.805,6.029,-0.012,-0.017,-0.026,102.0,103.0,100.0,13.4,1505.2,326.3,-0.7,1.8,2470.744,13.29,0.02,215.2
2021-09-22T07:46:03,42.805,6.029,-0.012,0.009,0.004,103.0,99.0,103.0,13.4,1505.2,326.9,-0.8,1.8,2470.705,13.29,0.015,306.9
2021-09-22T07:49:03,42.805,6.029,-0.014,0.007,-0.003,103.0,101.0,101.0,13.4,1505.2,327.1,-0.8,1.8,2470.726,13.29,0.015,296.6
2021-09-22T07:52:03,42.805,6.029,-0.007,0.0,0.0,104.0,102.0,100.0,13.3,1505.2,326.5,-0.8,1.8,2470.765,13.29,0.007,270.0
2021-09-22T07:55:03,42.805,6.029,-0.027,0.007,-0.002,102.0,101.0,101.0,13.4,1505.2,327.3,-0.7,1.8,2470.717,13.29,0.027,284.5
2021-09-22T07:58:03,42.805,6.029,0.008,-0.011,0.0,102.0,101.0,100.0,13.4,1505.2,327.6,-0.7,1.8,2470.737,13.29,0.013,144.0
2021-09-22T08:04:03,42.805,6.029,-0.017,-0.006,-0.013,102.0,101.0,101.0,13.4,1505.2,327.3,-0.7,1.8,2470.771,13.29,0.018,250.6
2021-09-22T08:07:03,42.805,6.029,-0.012,-0.002,0.018,101.0,101.0,99.0,13.3,1505.2,329.6,-0.8,1.8,2470.765,13.29,0.012,260.5
2021-09-22T08:10:03,42.805,6.029,-0.034,0.002,-0.036,100.0,102.0,101.0,13.3,1505.2,330.8,-0.8,1.8,2470.723,13.29,0.034,273.4
2021-09-22T08:13:03,42.805,6.029,-0.033,0.041,-0.003,103.0,101.0,100.0,13.3,1505.2,329.4,-0.8,1.8,2470.744,13.29,0.052,321.2
2021-09-22T08:16:03,42.805,6.029,-0.008,0.004,-0.008,103.0,100.0,100.0,13.4,1505.2,326.7,-0.8,1.8,2470.714,13.29,0.008,296.6
2021-09-22T08:19:03,42.805,6.029,-0.007,0.005,0.012,102.0,99.0,101.0,13.3,1505.2,329.2,-0.8,1.8,2470.71,13.29,0.008,305.5
2021-09-22T08:22:03,42.805,6.029,-0.008,0.006,0.0,100.0,99.0,101.0,13.4,1505.2,331.0,-0.7,1.8,2470.722,13.29,0.01,306.9
2021-09-22T08:25:03,42.805,6.029,-0.007,-0.003,-0.005,101.0,102.0,99.0,13.3,1505.2,325.6,-0.8,1.8,2470.685,13.29,0.007,246.8
2021-09-22T08:28:03,42.805,6.029,-0.03,0.006,0.003,100.0,104.0,100.0,13.4,1505.2,329.3,-0.7,1.8,2470.717,13.29,0.03,281.3
2021-09-22T08:31:03,42.805,6.029,0.013,0.002,0.009,101.0,101.0,100.0,13.4,1505.2,325.8,-0.7,1.8,2470.747,13.29,0.013,81.3
2021-09-22T08:34:03,42.805,6.029,0.014,-0.023,0.0,101.0,100.0,100.0,13.4,1505.2,328.2,-0.7,1.8,2470.732,13.29,0.026,148.7
2021-09-22T08:37:03,42.805,6.029,-0.026,0.004,-0.019,102.0,100.0,102.0,13.3,1505.2,325.6,-0.8,1.8,2470.744,13.29,0.026,278.7
2021-09-22T08:40:03,42.805,6.029,0.003,-0.009,0.02,100.0,103.0,101.0,13.4,1505.2,329.0,-0.7,1.8,2470.692,13.29,0.009,161.6
2021-09-22T08:43:03,42.805,6.029,-0.012,0.015,-0.012,101.0,101.0,102.0,13.3,1505.2,327.8,-0.8,1.8,2470.736,13.29,0.019,321.3
2021-09-22T08:46:03,42.805,6.029,-0.014,0.004,0.041,106.0,100.0,100.0,13.4,1505.2,326.6,-0.7,1.8,2470.663,13.29,0.014,285.9
2021-09-22T08:49:03,42.805,6.029,-0.001,0.003,-0.009,103.0,102.0,101.0,13.4,1505.2,327.4,-0.7,1.8,2470.7,13.29,0.003,341.6
2021-09-22T08:52:03,42.805,6.029,-0.023,0.004,0.001,101.0,101.0,100.0,13.4,1505.2,327.3,-0.7,1.8,2470.706,13.29,0.023,279.9
2021-09-22T08:55:03,42.805,6.029,-0.016,0.001,0.021,101.0,102.0,100.0,13.4,1505.2,327.7,-0.7,1.8,2470.697,13.29,0.016,273.6
2021-09-22T08:58:03,42.805,6.029,-0.026,0.0,0.0,101.0,102.0,100.0,13.4,1505.2,327.3,-0.7,1.8,2470.686,13.29,0.026,270.0
2021-09-22T09:04:03,42.805,6.029,-0.017,0.002,-0.018,100.0,101.0,100.0,13.4,1505.2,328.6,-0.7,1.9,2470.74,13.28,0.017,276.7
2021-09-22T09:07:03,42.805,6.029,-0.014,0.0,0.001,101.0,101.0,101.0,13.4,1505.2,326.4,-0.8,1.8,2470.726,13.29,0.014,270.0
2021-09-22T09:10:03,42.805,6.029,-0.015,0.005,0.012,103.0,101.0,99.0,13.3,1505.2,327.8,-0.7,1.8,2470.715,13.29,0.015,288.4
2021-09-22T09:13:03,42.805,6.029,0.001,0.008,0.023,102.0,101.0,100.0,13.3,1505.2,327.0,-0.8,1.8,2470.72,13.29,0.008,7.1
2021-09-22T09:16:03,42.805,6.029,-0.022,-0.008,-0.02,102.0,102.0,100.0,13.4,1505.2,329.2,-0.8,1.8,2470.749,13.29,0.023,250.0
2021-09-22T09:19:03,42.805,6.029,-0.009,-0.014,-0.008,102.0,101.0,100.0,13.4,1505.2,331.5,-0.7,1.8,2470.694,13.29,0.016,212.7
2021-09-22T09:22:03,42.805,6.029,-0.029,0.003,-0.011,103.0,102.0,101.0,13.3,1505.2,330.8,-0.8,1.8,2470.719,13.29,0.029,275.9
2021-09-22T09:25:03,42.805,6.029,-0.011,0.009,0.001,104.0,102.0,100.0,13.4,1505.2,327.8,-0.7,1.8,2470.702,13.29,0.014,309.3
2021-09-22T09:28:03,42.805,6.029,0.004,0.0,-0.003,102.0,101.0,101.0,13.4,1505.2,326.8,-0.8,1.8,2470.693,13.29,0.004,90.0
2021-09-22T09:31:03,42.805,6.029,-0.02,0.005,-0.012,102.0,102.0,101.0,13.3,1505.2,327.3,-0.8,1.8,2470.674,13.29,0.02,284.0
2021-09-22T09:34:03,42.805,6.029,-0.01,-0.004,0.0,102.0,103.0,102.0,13.4,1505.2,329.2,-0.8,1.8,2470.679,13.29,0.01,248.2
2021-09-22T09:37:03,42.805,6.029,-0.013,-0.004,-0.005,103.0,102.0,100.0,13.4,1505.2,324.9,-0.8,1.8,2470.694,13.29,0.013,252.9
2021-09-22T09:40:03,42.805,6.029,-0.035,0.018,0.002,100.0,102.0,101.0,13.4,1505.2,330.1,-0.7,1.9,2470.719,13.29,0.039,297.2
2021-09-22T09:43:03,42.805,6.029,-0.013,0.01,-0.01,102.0,103.0,99.0,13.4,1505.2,328.3,-0.8,1.8,2470.671,13.29,0.016,307.6
2021-09-22T09:46:03,42.805,6.029,-0.027,0.013,-0.004,101.0,101.0,100.0,13.3,1505.2,327.6,-0.7,1.8,2470.676,13.29,0.029,295.7
2021-09-22T09:49:03,42.805,6.029,-0.021,-0.014,-0.018,102.0,103.0,100.0,13.3,1505.2,329.5,-0.8,1.8,2470.629,13.29,0.025,236.3
2021-09-22T09:52:03,42.805,6.029,-0.023,0.004,0.021,102.0,100.0,101.0,13.4,1505.2,329.3,-0.8,1.8,2470.651,13.29,0.023,279.9
2021-09-22T09:55:03,42.805,6.029,-0.021,-0.003,0.009,100.0,102.0,102.0,13.4,1505.2,330.0,-0.8,1.8,2470.645,13.29,0.021,261.9